^^
Saratoga-Weather Station Historical Data
Daily Summary for May 13, 2022 Units:  Metric    English   Both
Daily Weekly Monthly Yearly Custom
  High: Low: Average:
Temperature: 21.1 °C 11.4 °C 16.1 °C
Dew Point: 11 °C 5.9 °C 8 °C
Humidity: 79% 42% 60%
Wind Speed: 22.5km/h 0km/h 5.9km/h
Wind Gust: 25.7km/h - -
Wind- - West
Pressure: 1021.3 hPa 1018.3 hPa -
Precipitation: 0.0 mm    
Historical Graphs
 
 
Tabular Data for May 13, 2022
Time Temperature Dew Point Pressure Wind Wind Speed Wind Gust Humidity Rainfall Rate (Hourly) solar
00:04 15.8 °C 11 °C 1018.3 hPa WNW 1.4 km/h 4.8 km/h 73% 0.0 mm 0 W/m2
00:09 15.7 °C 10.9 °C 1018.3 hPa WNW 3.2 km/h 4.8 km/h 73% 0.0 mm 0 W/m2
00:14 15.6 °C 10.8 °C 1018.3 hPa WNW 3.2 km/h 3.2 km/h 73% 0.0 mm 0 W/m2
00:19 15.6 °C 10.8 °C 1018.3 hPa WNW 1.4 km/h 4.8 km/h 73% 0.0 mm 0 W/m2
00:24 15.5 °C 10.7 °C 1018.6 hPa Calm   1.6 km/h 73% 0.0 mm 0 W/m2
00:29 15.4 °C 10.8 °C 1018.6 hPa Calm   4.8 km/h 74% 0.0 mm 0 W/m2
00:34 15.4 °C 10.8 °C 1018.6 hPa Calm     74% 0.0 mm 0 W/m2
00:39 15.3 °C 10.7 °C 1018.6 hPa Calm     74% 0.0 mm 0 W/m2
00:44 15.3 °C 10.9 °C 1018.6 hPa Calm     75% 0.0 mm 0 W/m2
00:49 15.2 °C 10.8 °C 1018.6 hPa Calm   1.6 km/h 75% 0.0 mm 0 W/m2
00:54 15.2 °C 11 °C 1018.6 hPa Calm     76% 0.0 mm 0 W/m2
00:59 15.1 °C 10.9 °C 1018.6 hPa Calm     76% 0.0 mm 0 W/m2
01:04 14.9 °C 10.9 °C 1018.3 hPa Calm     77% 0.0 mm 0 W/m2
01:09 14.9 °C 10.9 °C 1018.3 hPa Calm   1.6 km/h 77% 0.0 mm 0 W/m2
01:14 14.9 °C 10.9 °C 1018.3 hPa WNW 1.4 km/h 3.2 km/h 77% 0.0 mm 0 W/m2
01:19 14.9 °C 10.7 °C 1018.3 hPa West 4.7 km/h 4.8 km/h 76% 0.0 mm 0 W/m2
01:24 14.9 °C 10.7 °C 1018.6 hPa WSW 1.4 km/h 4.8 km/h 76% 0.0 mm 0 W/m2
01:29 14.9 °C 10.7 °C 1018.6 hPa WSW 1.4 km/h 3.2 km/h 76% 0.0 mm 0 W/m2
01:34 14.9 °C 10.7 °C 1018.6 hPa WSW 1.4 km/h 4.8 km/h 76% 0.0 mm 0 W/m2
01:39 14.9 °C 10.7 °C 1018.6 hPa WSW 1.4 km/h 4.8 km/h 76% 0.0 mm 0 W/m2
01:44 14.8 °C 10.6 °C 1018.6 hPa WSW 1.4 km/h 3.2 km/h 76% 0.0 mm 0 W/m2
01:49 14.7 °C 10.5 °C 1018.6 hPa WSW 1.4 km/h 4.8 km/h 76% 0.0 mm 0 W/m2
01:54 14.6 °C 10.4 °C 1018.6 hPa WSW 3.2 km/h 4.8 km/h 76% 0.0 mm 0 W/m2
01:59 14.6 °C 10.6 °C 1018.6 hPa West 3.2 km/h 3.2 km/h 77% 0.0 mm 0 W/m2
02:04 14.6 °C 10.4 °C 1018.6 hPa West 1.4 km/h 1.6 km/h 76% 0.0 mm 0 W/m2
02:09 14.6 °C 10.4 °C 1018.6 hPa Calm     76% 0.0 mm 0 W/m2
02:14 14.5 °C 10.3 °C 1018.6 hPa Calm   1.6 km/h 76% 0.0 mm 0 W/m2
02:19 14.4 °C 10.2 °C 1018.6 hPa West 3.2 km/h 3.2 km/h 76% 0.0 mm 0 W/m2
02:24 14.4 °C 10.2 °C 1018.6 hPa WNW 3.2 km/h 4.8 km/h 76% 0.0 mm 0 W/m2
02:29 14.4 °C 10.2 °C 1018.6 hPa WNW 1.4 km/h 3.2 km/h 76% 0.0 mm 0 W/m2
02:34 14.4 °C 10.2 °C 1019.0 hPa WNW 3.2 km/h 3.2 km/h 76% 0.0 mm 0 W/m2
02:39 14.4 °C 10.2 °C 1018.6 hPa WNW 1.4 km/h 3.2 km/h 76% 0.0 mm 0 W/m2
02:44 14.4 °C 10.2 °C 1018.6 hPa WNW 1.4 km/h 3.2 km/h 76% 0.0 mm 0 W/m2
02:49 14.3 °C 10.1 °C 1018.6 hPa West 1.4 km/h 3.2 km/h 76% 0.0 mm 0 W/m2
02:54 14.3 °C 10.1 °C 1018.6 hPa Calm   1.6 km/h 76% 0.0 mm 0 W/m2
02:59 14.2 °C 10 °C 1018.6 hPa WSW 3.2 km/h 4.8 km/h 76% 0.0 mm 0 W/m2
03:04 14.1 °C 9.9 °C 1018.6 hPa West 3.2 km/h 3.2 km/h 76% 0.0 mm 0 W/m2
03:09 14 °C 9.8 °C 1018.6 hPa Calm   1.6 km/h 76% 0.0 mm 0 W/m2
03:14 13.9 °C 9.7 °C 1018.6 hPa West 3.2 km/h 3.2 km/h 76% 0.0 mm 0 W/m2
03:19 13.8 °C 9.6 °C 1018.6 hPa West 3.2 km/h 3.2 km/h 76% 0.0 mm 0 W/m2
03:24 13.8 °C 9.8 °C 1018.6 hPa West 3.2 km/h 4.8 km/h 77% 0.0 mm 0 W/m2
03:29 13.7 °C 9.9 °C 1018.6 hPa West 1.4 km/h 3.2 km/h 78% 0.0 mm 0 W/m2
03:34 13.6 °C 9.8 °C 1018.6 hPa West 3.2 km/h 4.8 km/h 78% 0.0 mm 0 W/m2
03:39 13.4 °C 9.8 °C 1019.0 hPa West 3.2 km/h 6.4 km/h 79% 0.0 mm 0 W/m2
03:44 13.4 °C 9.8 °C 1019.0 hPa West 3.2 km/h 6.4 km/h 79% 0.0 mm 0 W/m2
03:49 13.4 °C 9.6 °C 1018.6 hPa West 4.7 km/h 9.7 km/h 78% 0.0 mm 0 W/m2
03:54 13.4 °C 9.6 °C 1018.6 hPa West 4.7 km/h 4.8 km/h 78% 0.0 mm 0 W/m2
03:59 13.4 °C 9.3 °C 1018.6 hPa WSW 3.2 km/h 9.7 km/h 76% 0.0 mm 0 W/m2
04:04 13.4 °C 9.3 °C 1018.6 hPa West 4.7 km/h 6.4 km/h 76% 0.0 mm 0 W/m2
04:09 13.3 °C 9.2 °C 1018.6 hPa WSW 7.9 km/h 9.7 km/h 76% 0.0 mm 0 W/m2
04:14 13.3 °C 9.2 °C 1019.0 hPa West 4.7 km/h 6.4 km/h 76% 0.0 mm 0 W/m2
04:19 13.2 °C 8.9 °C 1018.6 hPa West 3.2 km/h 4.8 km/h 75% 0.0 mm 0 W/m2
04:24 13.2 °C 9.1 °C 1019.0 hPa West 4.7 km/h 6.4 km/h 76% 0.0 mm 0 W/m2
04:29 13.2 °C 9.1 °C 1019.0 hPa West 6.4 km/h 14.5 km/h 76% 0.0 mm 0 W/m2
04:34 13.3 °C 9 °C 1019.0 hPa WSW 11.1 km/h 14.5 km/h 75% 0.0 mm 0 W/m2
04:39 13.3 °C 9 °C 1019.0 hPa West 9.7 km/h 12.9 km/h 75% 0.0 mm 0 W/m2
04:44 13.2 °C 8.9 °C 1019.3 hPa West 11.1 km/h 12.9 km/h 75% 0.0 mm 0 W/m2
04:49 13.1 °C 8.4 °C 1019.3 hPa WSW 13 km/h 16.1 km/h 73% 0.0 mm 0 W/m2
04:54 13 °C 8.1 °C 1019.3 hPa NNW 13 km/h 20.9 km/h 72% 0.0 mm 0 W/m2
04:59 12.9 °C 8.2 °C 1019.3 hPa West 6.4 km/h 12.9 km/h 73% 0.0 mm 0 W/m2
05:04 12.8 °C 7.9 °C 1019.3 hPa WNW 13 km/h 20.9 km/h 72% 0.0 mm 0 W/m2
05:09 12.6 °C 7.7 °C 1019.0 hPa WSW 13 km/h 14.5 km/h 72% 0.0 mm 0 W/m2
05:14 12.4 °C 7.5 °C 1019.0 hPa WNW 4.7 km/h 17.7 km/h 72% 0.0 mm 0 W/m2
05:19 12.3 °C 7.6 °C 1019.0 hPa WNW 6.4 km/h 11.3 km/h 73% 0.0 mm 0 W/m2
05:24 12.2 °C 7.5 °C 1019.0 hPa West 4.7 km/h 11.3 km/h 73% 0.0 mm 0 W/m2
05:29 12 °C 7.3 °C 1019.0 hPa WSW 7.9 km/h 12.9 km/h 73% 0.0 mm 0 W/m2
05:34 11.8 °C 7.1 °C 1019.0 hPa WNW 6.4 km/h 12.9 km/h 73% 0.0 mm 0 W/m2
05:39 11.8 °C 7.3 °C 1019.0 hPa West 6.4 km/h 11.3 km/h 74% 0.0 mm 0 W/m2
05:44 11.7 °C 7.2 °C 1019.3 hPa West 11.1 km/h 11.3 km/h 74% 0.0 mm 0 W/m2
05:49 11.6 °C 7.1 °C 1019.3 hPa WNW 4.7 km/h 9.7 km/h 74% 0.0 mm 0 W/m2
05:54 11.5 °C 7 °C 1019.3 hPa WNW 4.7 km/h 8 km/h 74% 0.0 mm 5 W/m2
05:59 11.4 °C 6.9 °C 1019.3 hPa WSW 6.4 km/h 11.3 km/h 74% 0.0 mm 5 W/m2
06:04 11.4 °C 6.9 °C 1019.3 hPa West 3.2 km/h 11.3 km/h 74% 0.0 mm 7 W/m2
06:09 11.4 °C 6.7 °C 1019.3 hPa WSW 9.7 km/h 11.3 km/h 73% 0.0 mm 11 W/m2
06:14 11.4 °C 6.7 °C 1019.3 hPa West 9.7 km/h 12.9 km/h 73% 0.0 mm 12 W/m2
06:19 11.4 °C 6.7 °C 1019.3 hPa WNW 3.2 km/h 11.3 km/h 73% 0.0 mm 14 W/m2
06:29 11.5 °C 6.8 °C 1019.3 hPa WSW 6.4 km/h 8 km/h 73% 0.0 mm 19 W/m2
06:34 11.6 °C 6.9 °C 1019.3 hPa WSW 7.9 km/h 11.3 km/h 73% 0.0 mm 19 W/m2
06:39 11.6 °C 6.9 °C 1019.6 hPa West 11.1 km/h 12.9 km/h 73% 0.0 mm 19 W/m2
06:45 11.6 °C 6.9 °C 1019.6 hPa West 11.1 km/h 11.3 km/h 73% 0.0 mm 21 W/m2
06:50 11.5 °C 6.8 °C 1019.6 hPa West 6.4 km/h 9.7 km/h 73% 0.0 mm 28 W/m2
06:55 11.5 °C 6.8 °C 1019.6 hPa West 4.7 km/h 11.3 km/h 73% 0.0 mm 30 W/m2
07:00 11.6 °C 7.1 °C 1019.6 hPa NW 4.7 km/h 6.4 km/h 74% 0.0 mm 32 W/m2
07:05 11.6 °C 6.9 °C 1019.6 hPa NW 4.7 km/h 11.3 km/h 73% 0.0 mm 35 W/m2
07:10 11.6 °C 6.9 °C 1019.6 hPa WNW 7.9 km/h 11.3 km/h 73% 0.0 mm 40 W/m2
07:15 11.6 °C 7.1 °C 1020.0 hPa WNW 6.4 km/h 12.9 km/h 74% 0.0 mm 44 W/m2
07:20 11.6 °C 7.1 °C 1020.0 hPa West 6.4 km/h 14.5 km/h 74% 0.0 mm 40 W/m2
07:25 11.6 °C 7.5 °C 1020.0 hPa West 4.7 km/h 11.3 km/h 76% 0.0 mm 58 W/m2
07:30 11.5 °C 7.4 °C 1020.3 hPa West 9.7 km/h 9.7 km/h 76% 0.0 mm 56 W/m2
07:40 11.4 °C 7.5 °C 1020.3 hPa West 3.2 km/h 4.8 km/h 77% 0.0 mm 46 W/m2
07:45 11.4 °C 7.3 °C 1020.3 hPa West 4.7 km/h 12.9 km/h 76% 0.0 mm 47 W/m2
07:50 11.4 °C 7.3 °C 1020.7 hPa West 4.7 km/h 6.4 km/h 76% 0.0 mm 54 W/m2
07:55 11.4 °C 7.3 °C 1020.7 hPa West 4.7 km/h 11.3 km/h 76% 0.0 mm 47 W/m2
08:00 11.6 °C 7.3 °C 1020.7 hPa West 3.2 km/h 11.3 km/h 75% 0.0 mm 163 W/m2
08:05 11.7 °C 7.2 °C 1020.7 hPa NNW 7.9 km/h 9.7 km/h 74% 0.0 mm 84 W/m2
08:10 11.8 °C 6.9 °C 1020.7 hPa WNW 4.7 km/h 9.7 km/h 72% 0.0 mm 84 W/m2
08:15 11.9 °C 6.6 °C 1020.7 hPa WNW 1.4 km/h 6.4 km/h 70% 0.0 mm 95 W/m2
08:20 12.1 °C 6.8 °C 1020.7 hPa WNW 1.4 km/h 4.8 km/h 70% 0.0 mm 91 W/m2
08:25 12.2 °C 6.5 °C 1021.0 hPa NW 1.4 km/h 8 km/h 68% 0.0 mm 91 W/m2
08:30 12.3 °C 6.3 °C 1021.0 hPa NW 3.2 km/h 12.9 km/h 67% 0.0 mm 69 W/m2
08:35 12.3 °C 6.3 °C 1021.0 hPa West 3.2 km/h 12.9 km/h 67% 0.0 mm 53 W/m2
08:40 12.5 °C 6.8 °C 1021.0 hPa West 6.4 km/h 8 km/h 68% 0.0 mm 58 W/m2
08:45 12.7 °C 6.7 °C 1021.0 hPa WNW 6.4 km/h 9.7 km/h 67% 0.0 mm 62 W/m2
08:50 12.9 °C 6.5 °C 1021.0 hPa WNW 3.2 km/h 12.9 km/h 65% 0.0 mm 65 W/m2
08:55 13.2 °C 7 °C 1021.0 hPa WNW 6.4 km/h 6.4 km/h 66% 0.0 mm 58 W/m2
09:00 13.3 °C 6.9 °C 1021.3 hPa NW 4.7 km/h 12.9 km/h 65% 0.0 mm 65 W/m2
09:05 13.4 °C 7 °C 1021.3 hPa WNW 3.2 km/h 6.4 km/h 65% 0.0 mm 91 W/m2
09:10 13.5 °C 6.6 °C 1021.3 hPa WNW 4.7 km/h 11.3 km/h 63% 0.0 mm 135 W/m2
09:15 13.5 °C 6.8 °C 1021.3 hPa WNW 4.7 km/h 6.4 km/h 64% 0.0 mm 104 W/m2
09:20 13.6 °C 6.7 °C 1021.3 hPa NW 7.9 km/h 9.7 km/h 63% 0.0 mm 69 W/m2
09:25 13.8 °C 6.9 °C 1021.3 hPa NNW 6.4 km/h 8 km/h 63% 0.0 mm 54 W/m2
09:30 14.2 °C 6.5 °C 1021.3 hPa WNW 3.2 km/h 12.9 km/h 60% 0.0 mm 53 W/m2
09:35 14.4 °C 6.7 °C 1021.3 hPa WSW 6.4 km/h 9.7 km/h 60% 0.0 mm 53 W/m2
09:40 14.6 °C 6.7 °C 1021.3 hPa NW 4.7 km/h 11.3 km/h 59% 0.0 mm 53 W/m2
09:45 14.8 °C 6.9 °C 1021.3 hPa WNW 6.4 km/h 6.4 km/h 59% 0.0 mm 54 W/m2
09:50 15 °C 6.8 °C 1021.0 hPa WNW 7.9 km/h 11.3 km/h 58% 0.0 mm 53 W/m2
09:55 15.1 °C 6.9 °C 1021.0 hPa NW 4.7 km/h 9.7 km/h 58% 0.0 mm 56 W/m2
10:00 15.2 °C 7 °C 1021.0 hPa West 13 km/h 14.5 km/h 58% 0.0 mm 265 W/m2
10:05 15.2 °C 7 °C 1021.0 hPa NE 4.7 km/h 14.5 km/h 58% 0.0 mm 577 W/m2
10:10 15.3 °C 7.1 °C 1021.0 hPa SW 6.4 km/h 9.7 km/h 58% 0.0 mm 592 W/m2
10:15 15.5 °C 7.3 °C 1021.0 hPa West 13 km/h 16.1 km/h 58% 0.0 mm 606 W/m2
10:20 15.4 °C 6.4 °C 1021.0 hPa WSW 4.7 km/h 16.1 km/h 55% 0.0 mm 619 W/m2
10:25 15.4 °C 6.7 °C 1021.0 hPa WNW 3.2 km/h 12.9 km/h 56% 0.0 mm 635 W/m2
10:30 15.6 °C 6.3 °C 1021.0 hPa WSW 11.1 km/h 16.1 km/h 54% 0.0 mm 649 W/m2
10:35 15.8 °C 6.2 °C 1021.3 hPa WNW 9.7 km/h 12.9 km/h 53% 0.0 mm 664 W/m2
10:40 15.7 °C 6.7 °C 1021.3 hPa NW 9.7 km/h 12.9 km/h 55% 0.0 mm 677 W/m2
10:45 15.8 °C 6.8 °C 1021.0 hPa North 7.9 km/h 14.5 km/h 55% 0.0 mm 687 W/m2
10:50 15.9 °C 6.9 °C 1021.0 hPa West 4.7 km/h 17.7 km/h 55% 0.0 mm 698 W/m2
10:55 16.2 °C 7.1 °C 1021.0 hPa WSW 6.4 km/h 12.9 km/h 55% 0.0 mm 710 W/m2
11:00 16.4 °C 7.1 °C 1021.0 hPa NNW 3.2 km/h 9.7 km/h 54% 0.0 mm 717 W/m2
11:05 16.6 °C 7.3 °C 1021.0 hPa West 9.7 km/h 12.9 km/h 54% 0.0 mm 731 W/m2
11:10 16.6 °C 6.7 °C 1021.0 hPa WNW 6.4 km/h 14.5 km/h 52% 0.0 mm 742 W/m2
11:15 16.6 °C 6.4 °C 1021.0 hPa West 4.7 km/h 22.5 km/h 51% 0.0 mm 754 W/m2
11:20 16.4 °C 5.9 °C 1021.0 hPa WNW 6.4 km/h 22.5 km/h 50% 0.0 mm 768 W/m2
11:25 16.7 °C 6.5 °C 1021.3 hPa SW 6.4 km/h 14.5 km/h 51% 0.0 mm 779 W/m2
11:30 16.7 °C 6.5 °C 1021.3 hPa NNW 16.3 km/h 22.5 km/h 51% 0.0 mm 789 W/m2
11:35 16.6 °C 6.4 °C 1021.3 hPa SSW 7.9 km/h 22.5 km/h 51% 0.0 mm 802 W/m2
11:40 16.6 °C 6.1 °C 1021.3 hPa West 14.3 km/h 22.5 km/h 50% 0.0 mm 809 W/m2
11:45 16.8 °C 6.6 °C 1021.3 hPa WNW 6.4 km/h 22.5 km/h 51% 0.0 mm 816 W/m2
11:50 16.9 °C 6.4 °C 1021.0 hPa West 13 km/h 16.1 km/h 50% 0.0 mm 828 W/m2
11:56 17.1 °C 6.6 °C 1021.0 hPa WNW 4.7 km/h 17.7 km/h 50% 0.0 mm 833 W/m2
12:01 17.4 °C 7.2 °C 1021.0 hPa West 16.3 km/h 16.1 km/h 51% 0.0 mm 844 W/m2
12:06 17.3 °C 6.5 °C 1021.0 hPa NW 13 km/h 22.5 km/h 49% 0.0 mm 846 W/m2
12:11 17.6 °C 6.8 °C 1021.0 hPa WNW 7.9 km/h 16.1 km/h 49% 0.0 mm 849 W/m2
12:16 17.6 °C 6.8 °C 1021.0 hPa WNW 7.9 km/h 14.5 km/h 49% 0.0 mm 861 W/m2
12:21 17.7 °C 6.8 °C 1021.0 hPa SW 6.4 km/h 19.3 km/h 49% 0.0 mm 868 W/m2
12:26 17.8 °C 6.6 °C 1021.0 hPa WNW 11.1 km/h 16.1 km/h 48% 0.0 mm 874 W/m2
12:31 18 °C 6.8 °C 1021.0 hPa NW 13 km/h 17.7 km/h 48% 0.0 mm 877 W/m2
12:36 17.8 °C 6.6 °C 1021.0 hPa West 11.1 km/h 25.7 km/h 48% 0.0 mm 886 W/m2
12:41 17.8 °C 6.6 °C 1021.0 hPa North 4.7 km/h 16.1 km/h 48% 0.0 mm 888 W/m2
12:46 17.9 °C 6.7 °C 1021.0 hPa WNW 9.7 km/h 25.7 km/h 48% 0.0 mm 891 W/m2
12:51 17.9 °C 7 °C 1021.0 hPa WNW 14.3 km/h 16.1 km/h 49% 0.0 mm 889 W/m2
12:56 18 °C 7.1 °C 1021.0 hPa NW 7.9 km/h 16.1 km/h 49% 0.0 mm 893 W/m2
13:01 18.2 °C 7.3 °C 1021.0 hPa WNW 7.9 km/h 17.7 km/h 49% 0.0 mm 891 W/m2
13:06 18.3 °C 6.5 °C 1021.0 hPa West 17.7 km/h 22.5 km/h 46% 0.0 mm 900 W/m2
13:11 18.2 °C 6.7 °C 1021.0 hPa NW 11.1 km/h 14.5 km/h 47% 0.0 mm 896 W/m2
13:16 18.4 °C 7.2 °C 1020.7 hPa West 22.5 km/h 22.5 km/h 48% 0.0 mm 896 W/m2
13:21 18.5 °C 7 °C 1020.7 hPa WNW 11.1 km/h 17.7 km/h 47% 0.0 mm 898 W/m2
13:26 18.6 °C 7.1 °C 1020.7 hPa NW 4.7 km/h 14.5 km/h 47% 0.0 mm 902 W/m2
13:31 18.8 °C 7.2 °C 1020.7 hPa West 11.1 km/h 20.9 km/h 47% 0.0 mm 898 W/m2
13:36 18.6 °C 7.4 °C 1020.7 hPa NNW 9.7 km/h 16.1 km/h 48% 0.0 mm 900 W/m2
13:41 18.7 °C 7.5 °C 1020.7 hPa West 16.3 km/h 17.7 km/h 48% 0.0 mm 902 W/m2
13:46 18.7 °C 6.5 °C 1020.7 hPa NW 13 km/h 16.1 km/h 45% 0.0 mm 904 W/m2
13:51 18.7 °C 6.8 °C 1020.7 hPa West 3.2 km/h 16.1 km/h 46% 0.0 mm 902 W/m2
13:56 18.8 °C 6.9 °C 1020.7 hPa WNW 16.3 km/h 16.1 km/h 46% 0.0 mm 902 W/m2
14:01 18.8 °C 6.6 °C 1020.7 hPa West 4.7 km/h 14.5 km/h 45% 0.0 mm 902 W/m2
14:06 18.8 °C 6.6 °C 1020.7 hPa NNW 14.3 km/h 16.1 km/h 45% 0.0 mm 898 W/m2
14:11 19 °C 6.8 °C 1020.7 hPa WSW 17.7 km/h 19.3 km/h 45% 0.0 mm 896 W/m2
14:16 19.1 °C 7.2 °C 1020.7 hPa WSW 17.7 km/h 17.7 km/h 46% 0.0 mm 898 W/m2
14:21 19.4 °C 6.8 °C 1020.7 hPa NW 13 km/h 17.7 km/h 44% 0.0 mm 896 W/m2
14:26 19.3 °C 7.4 °C 1020.7 hPa SW 7.9 km/h 12.9 km/h 46% 0.0 mm 893 W/m2
14:31 19.3 °C 7.4 °C 1020.7 hPa WSW 7.9 km/h 17.7 km/h 46% 0.0 mm 895 W/m2
14:36 19.4 °C 7.5 °C 1020.7 hPa North 13 km/h 17.7 km/h 46% 0.0 mm 893 W/m2
14:41 19.4 °C 7.2 °C 1020.7 hPa NW 6.4 km/h 19.3 km/h 45% 0.0 mm 893 W/m2
14:46 19.3 °C 7.1 °C 1020.3 hPa West 4.7 km/h 17.7 km/h 45% 0.0 mm 888 W/m2
14:51 19.5 °C 7.6 °C 1020.3 hPa WSW 13 km/h 22.5 km/h 46% 0.0 mm 886 W/m2
14:56 19.6 °C 8.3 °C 1020.3 hPa WSW 3.2 km/h 6.4 km/h 48% 0.0 mm 877 W/m2
15:01 19.9 °C 8.3 °C 1020.3 hPa West 9.7 km/h 16.1 km/h 47% 0.0 mm 872 W/m2
15:06 20 °C 8 °C 1020.7 hPa NNW 13 km/h 14.5 km/h 46% 0.0 mm 872 W/m2
15:11 20 °C 7.7 °C 1020.3 hPa WNW 11.1 km/h 22.5 km/h 45% 0.0 mm 865 W/m2
15:16 19.9 °C 7.9 °C 1020.3 hPa WNW 6.4 km/h 8 km/h 46% 0.0 mm 856 W/m2
15:21 20.2 °C 7.9 °C 1020.3 hPa West 4.7 km/h 22.5 km/h 45% 0.0 mm 849 W/m2
15:26 20.4 °C 7.4 °C 1020.3 hPa WNW 17.7 km/h 19.3 km/h 43% 0.0 mm 842 W/m2
15:31 20.4 °C 7.4 °C 1020.3 hPa NNW 14.3 km/h 14.5 km/h 43% 0.0 mm 837 W/m2
15:36 20.1 °C 7.5 °C 1020.3 hPa WNW 11.1 km/h 19.3 km/h 44% 0.0 mm 826 W/m2
15:41 20.1 °C 8.1 °C 1020.0 hPa WNW 6.4 km/h 9.7 km/h 46% 0.0 mm 821 W/m2
15:46 20.5 °C 7.5 °C 1020.0 hPa NW 11.1 km/h 25.7 km/h 43% 0.0 mm 812 W/m2
15:51 20.4 °C 7.4 °C 1020.0 hPa WSW 6.4 km/h 16.1 km/h 43% 0.0 mm 800 W/m2
15:56 20.6 °C 7.9 °C 1020.0 hPa WNW 11.1 km/h 25.7 km/h 44% 0.0 mm 788 W/m2
16:01 20.6 °C 7.6 °C 1020.0 hPa WSW 11.1 km/h 16.1 km/h 43% 0.0 mm 780 W/m2
16:06 20.6 °C 7.9 °C 1020.0 hPa West 17.7 km/h 19.3 km/h 44% 0.0 mm 768 W/m2
16:11 20.3 °C 7.6 °C 1020.0 hPa WNW 6.4 km/h 17.7 km/h 44% 0.0 mm 761 W/m2
16:16 20.4 °C 7.4 °C 1020.0 hPa WSW 9.7 km/h 11.3 km/h 43% 0.0 mm 751 W/m2
16:21 20.5 °C 7.8 °C 1020.0 hPa WNW 17.7 km/h 17.7 km/h 44% 0.0 mm 738 W/m2
16:26 20.6 °C 7.9 °C 1020.0 hPa WSW 7.9 km/h 14.5 km/h 44% 0.0 mm 733 W/m2
16:31 20.6 °C 7.9 °C 1020.0 hPa West 14.3 km/h 14.5 km/h 44% 0.0 mm 717 W/m2
16:36 20.6 °C 8.2 °C 1020.0 hPa NNW 6.4 km/h 19.3 km/h 45% 0.0 mm 708 W/m2
16:41 20.6 °C 7.9 °C 1020.0 hPa West 11.1 km/h 17.7 km/h 44% 0.0 mm 705 W/m2
16:46 20.7 °C 8 °C 1020.0 hPa NW 7.9 km/h 19.3 km/h 44% 0.0 mm 693 W/m2
16:51 20.6 °C 8.2 °C 1020.0 hPa WNW 6.4 km/h 11.3 km/h 45% 0.0 mm 679 W/m2
16:56 20.8 °C 8.1 °C 1020.0 hPa West 9.7 km/h 11.3 km/h 44% 0.0 mm 666 W/m2
17:01 20.8 °C 7.8 °C 1020.0 hPa WNW 7.9 km/h 17.7 km/h 43% 0.0 mm 659 W/m2
17:06 20.9 °C 7.9 °C 1020.0 hPa WSW 6.4 km/h 11.3 km/h 43% 0.0 mm 647 W/m2
17:11 20.9 °C 7.5 °C 1020.0 hPa SW 11.1 km/h 14.5 km/h 42% 0.0 mm 629 W/m2
17:16 20.7 °C 8 °C 1020.0 hPa West 6.4 km/h 14.5 km/h 44% 0.0 mm 617 W/m2
17:21 20.7 °C 7.7 °C 1019.6 hPa WSW 4.7 km/h 16.1 km/h 43% 0.0 mm 606 W/m2
17:26 20.7 °C 8 °C 1020.0 hPa NW 7.9 km/h 12.9 km/h 44% 0.0 mm 591 W/m2
17:31 20.8 °C 8.4 °C 1020.0 hPa WSW 1.4 km/h 16.1 km/h 45% 0.0 mm 577 W/m2
17:41 21.1 °C 8.7 °C 1019.6 hPa WSW 13 km/h 12.9 km/h 45% 0.0 mm 559 W/m2
17:46 21.1 °C 8.7 °C 1019.6 hPa SSW 6.4 km/h 6.4 km/h 45% 0.0 mm 538 W/m2
17:51 21.1 °C 8 °C 1020.0 hPa WSW 3.2 km/h 12.9 km/h 43% 0.0 mm 522 W/m2
17:56 21.1 °C 8.4 °C 1020.0 hPa West 3.2 km/h 12.9 km/h 44% 0.0 mm 506 W/m2
18:01 21.1 °C 8.7 °C 1020.0 hPa WNW 13 km/h 12.9 km/h 45% 0.0 mm 494 W/m2
18:06 21 °C 8.3 °C 1020.0 hPa WSW 4.7 km/h 17.7 km/h 44% 0.0 mm 476 W/m2
18:11 20.8 °C 8.4 °C 1020.0 hPa WNW 4.7 km/h 12.9 km/h 45% 0.0 mm 464 W/m2
18:16 20.9 °C 8.5 °C 1020.0 hPa NW 4.7 km/h 17.7 km/h 45% 0.0 mm 450 W/m2
18:21 21.1 °C 8.4 °C 1020.0 hPa West 9.7 km/h 17.7 km/h 44% 0.0 mm 432 W/m2
18:26 21.1 °C 8 °C 1020.0 hPa NW 14.3 km/h 16.1 km/h 43% 0.0 mm 417 W/m2
18:31 20.8 °C 7.8 °C 1020.0 hPa WNW 7.9 km/h 17.7 km/h 43% 0.0 mm 403 W/m2
18:36 20.8 °C 8.1 °C 1020.0 hPa WNW 7.9 km/h 9.7 km/h 44% 0.0 mm 374 W/m2
18:41 20.8 °C 8.1 °C 1020.0 hPa West 6.4 km/h 12.9 km/h 44% 0.0 mm 62 W/m2
18:46 20.7 °C 8 °C 1020.0 hPa WSW 14.3 km/h 14.5 km/h 44% 0.0 mm 62 W/m2
18:51 20.7 °C 8 °C 1020.0 hPa NW 6.4 km/h 12.9 km/h 44% 0.0 mm 60 W/m2
18:56 20.6 °C 7.9 °C 1020.0 hPa WNW 4.7 km/h 14.5 km/h 44% 0.0 mm 60 W/m2
19:01 20.4 °C 7.7 °C 1020.0 hPa WSW 7.9 km/h 11.3 km/h 44% 0.0 mm 58 W/m2
19:06 20.5 °C 8.2 °C 1020.0 hPa West 9.7 km/h 9.7 km/h 45% 0.0 mm 56 W/m2
19:11 20.5 °C 8.2 °C 1020.0 hPa West 9.7 km/h 11.3 km/h 45% 0.0 mm 54 W/m2
19:16 20.4 °C 7.7 °C 1020.0 hPa WSW 7.9 km/h 11.3 km/h 44% 0.0 mm 53 W/m2
19:21 20.2 °C 7.9 °C 1020.0 hPa WSW 6.4 km/h 12.9 km/h 45% 0.0 mm 51 W/m2
19:26 20.1 °C 7.8 °C 1020.0 hPa NW 4.7 km/h 8 km/h 45% 0.0 mm 49 W/m2
19:31 20.1 °C 8.1 °C 1020.0 hPa West 6.4 km/h 9.7 km/h 46% 0.0 mm 47 W/m2
19:36 19.9 °C 7.9 °C 1020.0 hPa West 4.7 km/h 14.5 km/h 46% 0.0 mm 46 W/m2
19:41 19.9 °C 7.9 °C 1020.0 hPa NNE 7.9 km/h 14.5 km/h 46% 0.0 mm 44 W/m2
19:46 19.7 °C 7.8 °C 1020.0 hPa WSW 7.9 km/h 16.1 km/h 46% 0.0 mm 42 W/m2
19:51 19.7 °C 8.1 °C 1020.0 hPa WSW 6.4 km/h 6.4 km/h 47% 0.0 mm 39 W/m2
19:56 19.6 °C 7.7 °C 1020.0 hPa WNW 3.2 km/h 8 km/h 46% 0.0 mm 37 W/m2
20:01 19.4 °C 7.8 °C 1020.0 hPa West 4.7 km/h 6.4 km/h 47% 0.0 mm 62 W/m2
20:06 19.2 °C 7.6 °C 1020.0 hPa WSW 4.7 km/h 9.7 km/h 47% 0.0 mm 54 W/m2
20:11 19 °C 8 °C 1020.0 hPa WSW 4.7 km/h 6.4 km/h 49% 0.0 mm 30 W/m2
20:16 18.8 °C 8.2 °C 1020.0 hPa West 3.2 km/h 6.4 km/h 50% 0.0 mm 28 W/m2
20:21 18.6 °C 8.3 °C 1020.0 hPa West 4.7 km/h 6.4 km/h 51% 0.0 mm 26 W/m2
20:26 18.4 °C 8.4 °C 1020.0 hPa WNW 3.2 km/h 4.8 km/h 52% 0.0 mm 23 W/m2
20:31 18.2 °C 8.2 °C 1020.0 hPa WNW 4.7 km/h 6.4 km/h 52% 0.0 mm 19 W/m2
20:36 18.1 °C 8.4 °C 1020.0 hPa West 3.2 km/h 9.7 km/h 53% 0.0 mm 18 W/m2
20:41 17.9 °C 8.5 °C 1020.0 hPa WNW 3.2 km/h 6.4 km/h 54% 0.0 mm 16 W/m2
20:46 17.8 °C 8.4 °C 1020.0 hPa West 3.2 km/h 9.7 km/h 54% 0.0 mm 14 W/m2
20:51 17.6 °C 8.5 °C 1020.0 hPa WSW 4.7 km/h 4.8 km/h 55% 0.0 mm 12 W/m2
20:56 17.4 °C 8.3 °C 1020.0 hPa WNW 3.2 km/h 4.8 km/h 55% 0.0 mm 9 W/m2
21:01 17.3 °C 8.2 °C 1020.0 hPa West 1.4 km/h 6.4 km/h 55% 0.0 mm 7 W/m2
21:06 17.1 °C 8.3 °C 1020.3 hPa West 4.7 km/h 6.4 km/h 56% 0.0 mm 5 W/m2
21:11 17 °C 8.4 °C 1020.3 hPa West 1.4 km/h 4.8 km/h 57% 0.0 mm 0 W/m2
21:16 16.8 °C 8.2 °C 1020.3 hPa West 1.4 km/h 3.2 km/h 57% 0.0 mm 0 W/m2
21:22 16.7 °C 8.4 °C 1020.3 hPa Calm   1.6 km/h 58% 0.0 mm 0 W/m2
21:27 16.6 °C 8.3 °C 1020.3 hPa West 1.4 km/h 1.6 km/h 58% 0.0 mm 0 W/m2
21:32 16.3 °C 8.3 °C 1020.3 hPa West 1.4 km/h 3.2 km/h 59% 0.0 mm 0 W/m2
21:37 16.1 °C 8.3 °C 1020.3 hPa Calm   3.2 km/h 60% 0.0 mm 0 W/m2
21:42 15.9 °C 8.1 °C 1020.3 hPa West 1.4 km/h 3.2 km/h 60% 0.0 mm 0 W/m2
21:47 15.8 °C 8.3 °C 1020.3 hPa Calm   3.2 km/h 61% 0.0 mm 0 W/m2
21:52 15.6 °C 8.1 °C 1020.3 hPa West 4.7 km/h 4.8 km/h 61% 0.0 mm 0 W/m2
21:57 15.4 °C 8.2 °C 1020.3 hPa West 1.4 km/h 3.2 km/h 62% 0.0 mm 0 W/m2
22:02 15.4 °C 8.4 °C 1020.7 hPa Calm   1.6 km/h 63% 0.0 mm 0 W/m2
22:07 15.2 °C 8.2 °C 1020.7 hPa Calm     63% 0.0 mm 0 W/m2
22:12 15.1 °C 8.3 °C 1020.7 hPa Calm     64% 0.0 mm 0 W/m2
22:17 14.9 °C 8.1 °C 1020.7 hPa Calm     64% 0.0 mm 0 W/m2
22:22 14.7 °C 8.4 °C 1020.7 hPa Calm     66% 0.0 mm 0 W/m2
22:27 14.5 °C 8.2 °C 1020.7 hPa Calm     66% 0.0 mm 0 W/m2
22:32 14.4 °C 8.3 °C 1020.7 hPa Calm     67% 0.0 mm 0 W/m2
22:37 14.2 °C 8.2 °C 1020.7 hPa Calm     67% 0.0 mm 0 W/m2
22:42 14 °C 8.2 °C 1020.7 hPa Calm     68% 0.0 mm 0 W/m2
22:47 13.9 °C 8.1 °C 1020.7 hPa Calm     68% 0.0 mm 0 W/m2
22:52 13.8 °C 8 °C 1020.7 hPa Calm     68% 0.0 mm 0 W/m2
22:57 13.7 °C 8.1 °C 1020.7 hPa Calm     69% 0.0 mm 0 W/m2
23:02 13.6 °C 8 °C 1020.7 hPa Calm     69% 0.0 mm 0 W/m2
23:07 13.5 °C 7.9 °C 1020.7 hPa Calm     69% 0.0 mm 0 W/m2
23:12 13.4 °C 8 °C 1020.7 hPa Calm   1.6 km/h 70% 0.0 mm 0 W/m2
23:17 13.3 °C 7.9 °C 1020.7 hPa Calm   1.6 km/h 70% 0.0 mm 0 W/m2
23:22 13.2 °C 7.8 °C 1020.7 hPa Calm     70% 0.0 mm 0 W/m2
23:27 13.2 °C 8.1 °C 1020.7 hPa Calm     71% 0.0 mm 0 W/m2
23:32 13 °C 7.9 °C 1020.7 hPa Calm     71% 0.0 mm 0 W/m2
23:37 12.9 °C 7.8 °C 1020.7 hPa Calm     71% 0.0 mm 0 W/m2
23:42 12.8 °C 7.9 °C 1020.7 hPa Calm   1.6 km/h 72% 0.0 mm 0 W/m2
23:52 12.6 °C 7.7 °C 1020.7 hPa Calm   1.6 km/h 72% 0.0 mm 0 W/m2
23:57 12.4 °C 7.7 °C 1020.7 hPa Calm     73% 0.0 mm 0 W/m2
Juneau County Weather
Compliments of Weather Underground - 4 mb